TimePST,TemperatureF,Dew PointF,Humidity,Sea Level PressureIn,VisibilityMPH,Wind Direction,Wind SpeedMPH,Gust SpeedMPH,PrecipitationIn,Events,Conditions,WindDirDegrees,DateUTC
12:27 AM,35.6,35.6,100,30.22,2.5,SE,8.1,-,0.14,Rain,Heavy Rain,130,2012-12-05 08:27:00
12:32 AM,35.6,35.6,100,30.23,3.0,SE,8.1,-,0.17,Rain,Rain,130,2012-12-05 08:32:00
12:39 AM,35.6,35.6,100,30.21,4.0,ESE,9.2,18.4,0.19,Rain,Rain,110,2012-12-05 08:39:00
12:52 AM,36.0,35.1,97,30.19,5.0,ESE,10.4,21.9,0.23,Rain,Rain,120,2012-12-05 08:52:00
1:01 AM,37.4,35.6,93,30.21,5.0,SE,10.4,21.9,0.01,Rain,Rain,130,2012-12-05 09:01:00
1:24 AM,37.4,35.6,93,30.20,3.0,SE,10.4,20.7,0.09,Rain,Rain,130,2012-12-05 09:24:00
1:31 AM,37.4,35.6,93,30.20,3.0,SE,12.7,20.7,0.12,Rain,Rain,130,2012-12-05 09:31:00
1:40 AM,37.4,37.4,100,30.21,4.0,SE,12.7,24.2,0.13,Rain,Rain,140,2012-12-05 09:40:00
1:52 AM,37.9,37.0,97,30.18,3.0,SE,11.5,23.0,0.17,Rain,Rain,130,2012-12-05 09:52:00
2:34 AM,39.2,37.4,93,30.20,3.0,SE,11.5,20.7,0.08,Rain,Light Rain,140,2012-12-05 10:34:00
2:39 AM,39.2,37.4,93,30.20,2.5,SE,16.1,26.5,0.08,Rain,Heavy Rain,140,2012-12-05 10:39:00
2:52 AM,39.0,37.9,96,30.18,2.0,SE,10.4,19.6,0.12,Rain,Light Rain,130,2012-12-05 10:52:00
3:10 AM,39.2,39.2,100,30.19,1.2,SE,15.0,21.9,0.05,Rain,Rain,140,2012-12-05 11:10:00
3:17 AM,39.2,39.2,100,30.19,1.5,SSE,12.7,21.9,0.06,Rain,Rain,150,2012-12-05 11:17:00
3:24 AM,39.2,39.2,100,30.19,1.0,SE,10.4,18.4,0.09,Rain,Rain,140,2012-12-05 11:24:00
3:32 AM,39.2,39.2,100,30.18,0.8,SSE,12.7,18.4,0.12,Rain,Rain,150,2012-12-05 11:32:00
3:44 AM,41.0,39.2,93,30.18,1.0,SSE,16.1,20.7,0.16,Rain,Rain,150,2012-12-05 11:44:00
3:52 AM,42.1,41.0,96,30.14,1.2,SSE,13.8,23.0,0.19,Rain,Rain,160,2012-12-05 11:52:00
4:19 AM,42.8,42.8,100,30.21,2.0,SSW,5.8,18.4,0.14,Rain,Heavy Rain,200,2012-12-05 12:19:00
4:27 AM,42.8,42.8,100,30.21,1.2,Calm,Calm,-,0.19,Rain,Heavy Rain,0,2012-12-05 12:27:00
4:41 AM,42.8,42.8,100,30.21,1.5,South,5.8,-,0.23,Rain,Rain,180,2012-12-05 12:41:00
4:48 AM,42.8,42.8,100,30.21,1.0,SE,4.6,-,0.25,Rain,Rain,140,2012-12-05 12:48:00
4:52 AM,42.1,42.1,100,30.17,1.2,South,4.6,-,0.27,Rain,Rain,170,2012-12-05 12:52:00
5:03 AM,42.8,42.8,100,30.20,0.8,Variable,5.8,-,0.01,Rain,Light Rain,0,2012-12-05 13:03:00
6:38 AM,44.6,42.8,93,30.21,0.8,Variable,4.6,-,0.07,Rain,Light Rain,0,2012-12-05 14:38:00
6:52 AM,44.1,43.0,96,30.18,0.5,South,4.6,-,0.08,Fog-Rain,Light Rain,170,2012-12-05 14:52:00
7:26 AM,44.6,44.6,100,30.22,1.0,SSE,5.8,-,0.03,Rain,Light Rain,160,2012-12-05 15:26:00
7:33 AM,44.6,44.6,100,30.22,0.5,SSE,5.8,-,0.04,Fog-Rain,Light Rain,160,2012-12-05 15:33:00
7:52 AM,44.1,44.1,100,30.19,0.2,South,6.9,-,0.04,Fog,Fog,170,2012-12-05 15:52:00
8:48 AM,44.6,44.6,100,30.24,0.5,South,4.6,-,0.03,Fog-Rain,Light Rain,170,2012-12-05 16:48:00
8:52 AM,45.0,45.0,100,30.19,0.5,South,4.6,-,0.03,Fog,Fog,170,2012-12-05 16:52:00
9:01 AM,44.6,44.6,100,30.23,0.2,SSE,4.6,-,0.01,Fog,Fog,160,2012-12-05 17:01:00
9:52 AM,45.0,45.0,100,30.19,0.2,SSW,3.5,-,0.02,Fog,Fog,210,2012-12-05 17:52:00
10:07 AM,44.6,44.6,100,30.24,0.8,SSW,5.8,-,0.01,Rain,Light Rain,200,2012-12-05 18:07:00
10:52 AM,46.0,45.0,96,30.18,0.2,South,5.8,-,0.06,Fog-Rain,Light Rain,190,2012-12-05 18:52:00
11:52 AM,46.0,46.0,100,30.17,0.2,South,5.8,-,0.01,Fog,Fog,190,2012-12-05 19:52:00
12:52 PM,46.0,46.0,100,30.15,0.2,South,4.6,-,0.02,Fog-Rain,Light Rain,170,2012-12-05 20:52:00
1:01 PM,46.4,46.4,100,30.20,0.5,South,4.6,-,0.00,Fog-Rain,Light Rain,180,2012-12-05 21:01:00
1:12 PM,46.4,46.4,100,30.19,0.2,South,6.9,-,0.00,Fog,Fog,180,2012-12-05 21:12:00
1:52 PM,46.9,46.0,97,30.12,0.5,SSW,4.6,-,0.00,Fog,Fog,200,2012-12-05 21:52:00
1:59 PM,46.4,46.4,100,30.18,0.2,Variable,3.5,-,0.00,Fog-Rain,Light Rain,0,2012-12-05 21:59:00
2:49 PM,46.4,46.4,100,30.17,0.5,Calm,Calm,-,0.04,Fog-Rain,Light Rain,0,2012-12-05 22:49:00
2:52 PM,46.0,46.0,100,30.11,0.5,Calm,Calm,-,0.04,Fog-Rain,Light Rain,0,2012-12-05 22:52:00
3:05 PM,46.4,46.4,100,30.17,0.2,Calm,Calm,-,0.00,Fog,Fog,0,2012-12-05 23:05:00
3:52 PM,46.0,46.0,100,30.10,0.2,Calm,Calm,-,0.00,Fog,Fog,0,2012-12-05 23:52:00
4:45 PM,46.4,46.4,100,30.17,0.5,Calm,Calm,-,N/A,Fog,Fog,0,2012-12-06 00:45:00
4:52 PM,46.0,46.0,100,30.10,0.8,Calm,Calm,-,N/A,,Overcast,0,2012-12-06 00:52:00
5:03 PM,46.4,46.4,100,30.17,0.5,Calm,Calm,-,N/A,Fog,Fog,0,2012-12-06 01:03:00
5:13 PM,46.4,46.4,100,30.17,0.5,Calm,Calm,-,N/A,Fog,Fog,0,2012-12-06 01:13:00
5:28 PM,46.4,46.4,100,30.17,1.2,Calm,Calm,-,N/A,,Overcast,0,2012-12-06 01:28:00
5:35 PM,46.4,46.4,100,30.17,1.5,Calm,Calm,-,N/A,,Overcast,0,2012-12-06 01:35:00
5:44 PM,46.4,44.6,93,30.17,2.5,Calm,Calm,-,N/A,,Overcast,0,2012-12-06 01:44:00
5:52 PM,46.0,45.0,96,30.09,3.0,Calm,Calm,-,N/A,,Overcast,0,2012-12-06 01:52:00
6:22 PM,46.4,44.6,93,30.17,1.8,Calm,Calm,-,N/A,,Overcast,0,2012-12-06 02:22:00
6:29 PM,46.4,44.6,93,30.17,0.8,Calm,Calm,-,N/A,,Mist,0,2012-12-06 02:29:00
6:52 PM,46.0,45.0,96,30.10,0.5,Calm,Calm,-,0.01,Fog,Fog,0,2012-12-06 02:52:00
7:06 PM,46.4,44.6,93,30.17,0.8,Calm,Calm,-,N/A,,Overcast,0,2012-12-06 03:06:00
7:19 PM,46.4,44.6,93,30.18,1.0,Calm,Calm,-,N/A,,Overcast,0,2012-12-06 03:19:00
7:28 PM,46.4,44.6,93,30.18,1.0,Calm,Calm,-,N/A,,Mist,0,2012-12-06 03:28:00
7:37 PM,46.4,44.6,93,30.18,1.0,Calm,Calm,-,N/A,,Mist,0,2012-12-06 03:37:00
7:45 PM,46.4,44.6,93,30.18,0.8,Calm,Calm,-,N/A,,Mist,0,2012-12-06 03:45:00
7:52 PM,46.0,45.0,96,30.10,1.0,Calm,Calm,-,N/A,,Overcast,0,2012-12-06 03:52:00
8:08 PM,46.4,44.6,93,30.18,0.8,Calm,Calm,-,N/A,,Mist,0,2012-12-06 04:08:00
8:23 PM,46.4,44.6,93,30.18,0.2,Calm,Calm,-,N/A,Fog,Fog,0,2012-12-06 04:23:00
8:39 PM,46.4,44.6,93,30.18,0.5,Calm,Calm,-,N/A,Fog,Fog,0,2012-12-06 04:39:00
8:49 PM,46.4,44.6,93,30.18,0.5,Calm,Calm,-,0.01,Fog,Fog,0,2012-12-06 04:49:00
8:52 PM,46.0,45.0,96,30.09,0.8,Calm,Calm,-,0.01,,Overcast,0,2012-12-06 04:52:00
8:54 PM,46.4,44.6,93,30.18,1.0,Calm,Calm,-,N/A,,Overcast,0,2012-12-06 04:54:00
9:00 PM,46.4,44.6,93,30.18,0.8,Calm,Calm,-,N/A,,Overcast,0,2012-12-06 05:00:00
9:23 PM,46.4,44.6,93,30.18,0.2,Calm,Calm,-,N/A,Fog,Fog,0,2012-12-06 05:23:00
9:41 PM,44.6,44.6,100,30.18,0.5,Calm,Calm,-,N/A,Fog,Fog,0,2012-12-06 05:41:00
9:52 PM,45.0,45.0,100,30.10,0.5,Calm,Calm,-,N/A,Fog,Fog,0,2012-12-06 05:52:00
9:56 PM,44.6,44.6,100,30.17,0.8,Calm,Calm,-,N/A,,Overcast,0,2012-12-06 05:56:00
10:22 PM,44.6,44.6,100,30.18,0.5,Calm,Calm,-,N/A,Fog,Fog,0,2012-12-06 06:22:00
10:52 PM,44.1,44.1,100,30.10,0.2,Calm,Calm,-,N/A,Fog,Fog,0,2012-12-06 06:52:00
11:01 PM,44.6,44.6,100,30.17,0.5,Calm,Calm,-,N/A,Fog,Fog,0,2012-12-06 07:01:00
11:14 PM,44.6,44.6,100,30.18,0.5,Calm,Calm,-,N/A,Fog,Fog,0,2012-12-06 07:14:00
11:23 PM,44.6,42.8,93,30.17,1.5,Calm,Calm,-,N/A,,Overcast,0,2012-12-06 07:23:00
11:27 PM,44.6,42.8,93,30.18,3.0,Calm,Calm,-,N/A,,Overcast,0,2012-12-06 07:27:00
11:45 PM,44.6,42.8,93,30.17,1.8,Calm,Calm,-,N/A,,Mostly Cloudy,0,2012-12-06 07:45:00
11:52 PM,44.1,43.0,96,30.10,1.5,Calm,Calm,-,N/A,,Mostly Cloudy,0,2012-12-06 07:52:00
11:57 PM,42.8,42.8,100,30.17,2.5,Calm,Calm,-,N/A,,Scattered Clouds,0,2012-12-06 07:57:00